Location: Bidon
(44.3650°N, 4.5356°E)
Time: 10:18:16
(UTC+00:00)

Daily predictions for brighter satellites

Satellite Brightness Start Highest point End
(mag) Time Altitude Azimuth Time Altitude Azimuth Time Altitude Azimuth
ATLAS 2AS CENTAUR R/B 3.1 17:59:23 10° NNW 18:07:02 58° NE 18:14:02 10° SE
Cosmos 2322 Rocket 4.5 18:04:12 10° NW 18:08:57 29° WSW 18:13:41 10° SSW
YAOGAN 1 2.6 18:06:52 10° SSE 18:11:11 89° WSW 18:15:32 10° NNW
CZ-4 R/B 1.9 18:08:12 10° S 18:12:03 64° W 18:15:58 10° NNW
USA 186 3.8 18:13:45 10° ESE 18:15:44 15° ENE 18:17:45 10° NNE
Nadezhda 1 Rocket 4.2 18:10:34 10° SSE 18:16:16 45° E 18:22:01 10° NNE
ASTEX 1 4.4 18:14:04 10° NNE 18:18:07 25° E 18:22:07 10° SE
Cosmos 1461 2.7 18:14:31 10° SSW 18:18:31 82° SE 18:22:30 10° NE
Cosmos 405 4.0 18:15:39 10° NNW 18:19:04 51° W 18:22:26 10° S
Cosmos 1707 3.9 18:17:00 10° NNE 18:20:14 24° ENE 18:23:27 10° SE
SL-16 R/B 4.1 18:18:00 10° N 18:20:46 14° NE 18:23:32 10° ENE
Cosmos 2333 4.3 18:18:01 10° NNW 18:23:43 89° WSW 18:29:26 10° SSE
COSMOS 2455 3.2 18:20:13 10° NW 18:26:14 70° WSW 18:32:11 10° SSE
Envisat 4.3 18:21:42 10° S 18:26:31 44° W 18:31:24 10° NNW
Cosmos 2219 Rocket 2.2 18:21:02 10° NNW 18:26:38 67° ENE 18:32:12 10° SE
Timation 2 Rocket 4.1 18:21:47 10° SSW 18:28:25 89° WNW 18:34:48 10° NNE
SJ-6B 4.2 18:27:11 10° ESE 18:30:28 23° ENE 18:33:44 10° NNE
COSMO-SKYMED 1 4.2 18:28:54 10° N 18:32:57 39° WNW 18:36:59 10° SW
Cosmos 1300 Rocket 4.0 18:28:57 10° SSW 18:33:14 65° W 18:37:31 10° N
COSMOS 2428 2.7 18:28:49 10° NNW 18:34:32 79° ENE 18:40:13 10° SSE
NOAA 11 4.2 18:29:12 10° SSE 18:34:41 77° ENE 18:40:11 10° N
Cosmos 2322 4.4 18:29:56 10° NNW 18:35:34 60° WSW 18:41:10 10° S
Aureole 1 Rocket 3.1 18:30:36 10° NNW 18:35:50 88° WSW 18:39:44 10° SSE
Cosmos 2251 Rocket 4.0 18:30:33 10° NNW 18:35:54 65° WSW 18:41:12 10° S
H-2A R/B 3.1 18:33:13 11° ESE 18:36:50 23° ENE 18:40:46 10° NNE
ISS -2.2 18:35:45 10° S 18:38:08 19° SE 18:39:17 16° ESE
Cosmos 2360 Rocket 4.0 18:34:01 10° NW 18:39:01 34° WSW 18:44:02 10° SSW
MOS 1 4.4 18:33:32 10° SE 18:39:04 56° ENE 18:44:39 10° N
Cosmos 2151 Rocket 4.3 18:35:26 10° SSW 18:39:46 57° W 18:44:07 10° N
CZ-2D R/B 3.5 18:39:30 10° S 18:43:17 72° W 18:47:05 10° NNW
Cosmos 1939 Rocket 2.8 18:40:34 10° S 18:44:25 83° WSW 18:48:18 10° NNW
Lacrosse 5 rocket 2.5 18:47:30 10° SSE 18:49:55 18° SE 18:49:55 18° SE
SAR-Lupe-2 3.5 18:49:07 10° NNE 18:52:40 59° ESE 18:56:11 10° S
Cosmos 1544 3.1 18:49:39 10° S 18:53:14 79° W 18:56:52 10° N
Cosmos 2227 Rocket 2.9 18:48:35 10° SSE 18:53:21 29° ESE 18:58:10 10° NE
Cosmos 2219 3.4 18:49:09 10° S 18:54:40 51° ESE 19:00:14 10° NE
Cosmos 1455 Rocket 4.1 18:54:38 16° SE 18:57:03 26° E 19:00:43 10° NNE
ARGOS 3.8 18:53:49 16° ESE 18:57:26 35° ENE 19:02:17 10° N
DELTA 2 R/B (1) 4.4 18:53:30 10° SW 18:58:26 32° SSE 19:01:14 21° ESE
Cosmos 2341 Rocket 4.1 18:53:36 10° N 18:59:44 54° ENE 19:05:48 10° SSE
Cosmos 2181 Rocket 4.4 18:54:47 10° SSE 19:00:31 40° E 19:06:22 10° NNE
CZ-2C R/B 3.6 18:58:09 10° NNE 19:02:34 59° ESE 19:06:55 10° S
Cosmos 389 Rocket 2.7 18:59:40 10° N 19:02:59 45° ENE 19:04:29 27° SE
Cosmos 2297 Rocket 2.6 18:58:51 10° S 19:03:59 37° ESE 19:09:09 10° NE
Meteor 1-15 Rocket 4.4 18:58:49 10° S 19:04:24 55° E 19:10:06 10° NNE
Cosmos 2084 Rocket 4.2 19:01:30 10° S 19:05:25 31° ESE 19:07:32 21° ENE
GEOS 3 Rocket 3.6 19:01:21 12° SE 19:06:03 79° SW 19:11:13 10° NW
Ariane Rocket 3.8 19:03:49 10° S 19:08:44 53° W 19:13:43 10° NNW
FREGAT/IRIS 2.9 19:11:15 14° S 19:13:33 58° W 19:16:21 10° NNW
Cosmos 405 Rocket 2.8 19:11:15 14° SSE 19:14:16 47° E 19:17:50 10° NNE
NOSS 3-4 (A) 3.9 19:07:28 10° NW 19:14:32 89° SW 19:20:46 17° SE
NOSS 3-4 (C) 3.9 19:07:35 10° NW 19:14:39 89° SW 19:20:50 17° SE
Cosmos 1437 Rocket 4.0 19:11:43 10° NNE 19:14:27 23° ENE 19:14:27 23° ENE
Cosmos 614 Rocket 4.0 19:10:09 10° NNW 19:15:22 64° ENE 19:18:31 23° SE
EO 1 Delta rocket 4.5 19:10:01 10° SSE 19:16:59 90° SW 19:22:28 10° N
Cosmos 2218 Rocket 4.3 19:11:59 10° N 19:18:06 46° ENE 19:21:36 24° SE
Cosmos 2056 Rocket 3.6 19:13:32 10° S 19:18:50 59° ESE 19:24:10 10° NNE
Okean 1 Rocket 4.0 19:14:58 10° SSW 19:19:09 49° WNW 19:23:25 10° N
Cosmos 2154 Rocket 4.4 19:13:26 10° NNW 19:19:35 66° W 19:25:42 10° S
Cosmos 2366 rocket 4.3 19:15:28 10° N 19:21:34 45° ENE 19:24:45 26° SE
Cosmos 407 Rocket 3.3 19:16:48 10° NNW 19:21:57 77° ENE 19:25:02 24° SSE
Resurs 1-3 4.1 19:21:40 35° ESE 19:22:40 41° ENE 19:26:48 10° N
Cosmos 2333 Rocket 3.5 19:22:28 10° NW 19:27:45 40° WSW 19:33:03 10° S
Meteor 1-4 Rocket 2.3 19:25:00 10° N 19:28:33 73° E 19:29:05 58° SE
Meteor 1-24 Rocket 4.3 19:23:14 10° N 19:28:40 40° ENE 19:30:19 33° ESE
Meteor 2-17 Rocket 4.3 19:22:36 10° N 19:28:42 72° E 19:33:19 18° SSE
Resurs 01 Rocket 2.2 19:29:23 37° E 19:29:45 37° ENE 19:33:51 10° N
SL-08 RB Rocket 4.0 19:29:16 39° ESE 19:30:20 47° ENE 19:34:49 10° N
Cosmos 1624 Rocket 3.8 19:25:34 10° SSW 19:30:45 76° ESE 19:35:58 10° NNE
In-Cosmos 22 4.0 19:25:57 10° N 19:31:20 85° E 19:35:24 19° SSE
CZ-2C R/B 3.5 19:29:59 35° ESE 19:31:26 43° ENE 19:36:38 10° N
SL-8 Rocket 3.9 19:25:39 10° N 19:31:50 68° E 19:35:53 22° SSE
RESURS DK-1 4.5 19:30:28 10° NNE 19:32:24 14° NE 19:32:24 14° NE
Cosmos 2237 Rocket 2.2 19:29:33 10° NNW 19:35:18 88° WSW 19:38:28 28° SSE
ADEOS Rocket 3.5 19:28:15 10° NNE 19:35:35 65° ESE 19:43:17 10° S
SL-8 R/B 4.3 19:33:07 10° W 19:37:49 52° N 19:39:50 31° ENE
BREEZE-M DEB (TANK) 3.6 19:28:30 10° WNW 19:40:41 83° SSW 19:41:50 49° SE
Cosmos 1674 3.6 19:37:23 10° N 19:39:57 34° NE 19:39:57 34° NE
Cosmos 1954 Rocket 4.0 19:38:35 10° NNW 19:43:46 60° ENE 19:44:49 49° ESE
Cosmos 1980 3.9 19:39:02 10° NNW 19:44:40 70° WSW 19:47:47 27° S
SPOT 3 Rocket 3.8 19:41:13 16° S 19:45:21 65° WSW 19:50:30 10° NNW
Cosmos 1959 Rocket 4.4 19:39:25 10° N 19:45:34 71° E 19:48:25 33° SSE
Spot 2 Rocket 4.2 19:45:58 35° ENE 19:45:58 35° ENE 19:50:25 10° N
USA 186 3.4 19:44:30 20° SSW 19:46:21 35° W 19:49:33 10° NNW
Cosmos 1140 Rocket 3.3 19:41:10 10° NNW 19:46:22 83° ENE 19:47:56 46° SSE
Meteor 2-5 Rocket 3.7 19:45:13 10° N 19:51:04 82° E 19:53:38 36° SSE
Cosmos 1892 Rocket 4.1 19:50:05 10° NNW 19:54:27 56° W 19:56:35 28° SSW
ATLAS 2AS CENTAUR R/B 4.1 19:50:57 10° NW 19:57:41 36° WSW 20:03:36 11° S
Meteor 1-22 Rocket 4.3 20:01:13 39° S 20:03:35 71° E 20:09:41 10° NNE
SL-16 R/B 2.1 20:00:24 10° NNW 20:06:04 65° ENE 20:06:31 63° E
ERBS 4.3 20:06:28 10° NW 20:08:14 25° NNW 20:08:14 25° NNW
ISS -1.2 20:11:17 10° WSW 20:12:15 18° WSW 20:12:15 18° WSW
H-2A R/B 2.8 20:13:51 29° SSW 20:15:58 45° W 20:20:48 10° NNW
Cosmos 676 Rocket 4.1 20:10:57 10° NNW 20:16:11 68° WSW 20:16:51 60° SSW
Cosmos 2082 3.6 20:14:12 10° SSW 20:19:56 90° ESE 20:25:42 10° NNE
CZ-2C R/B 3.9 20:15:01 10° NNE 20:17:55 29° NE 20:17:55 29° NE
Lacrosse 5 rocket 3.8 20:25:10 10° WSW 20:25:40 13° WSW 20:25:40 13° WSW
MetOp-B 4.3 20:33:25 68° N 20:33:25 68° N 20:38:05 10° NNW
Cosmos 2227 Rocket 3.2 20:31:46 10° SW 20:37:10 45° WNW 20:42:37 10° NNE
Terra 4.0 20:49:57 17° NNE 20:49:57 17° NNE 20:51:17 10° N
Cosmos 2297 Rocket 3.6 20:42:50 10° WSW 20:48:02 36° NW 20:53:15 10° NNE
Nadezhda 3 Rocket 4.2 20:57:56 62° N 20:57:56 62° N 21:03:04 10° N
Resurs 01 Rocket 3.8 21:06:57 22° W 21:06:57 22° W 21:09:50 10° NW
USA 234 4.4 21:16:03 32° NNE 21:17:05 34° NNE 21:22:50 10° NW
SL-16 R/B 4.4 21:45:41 10° NW 21:48:25 18° W 21:48:25 18° W
CZ-4C R/B 4.2 23:00:03 10° NNW 23:03:40 32° NNW 23:03:40 32° NNW
